Location: Brompton
(51.4000°N, 0.5333°E)
Time: 03:56:19
(UTC+00:00)

USA 215 - Pass Details

Date: 29 September 2021
Orbit: 1093 x 1114 km, 123.0° (Epoch: 14 October)

Event Time Altitude Azimuth Distance (km) Brightness Sun altitude
Exits shadow 17:58:36 - 94° (E) 3,478 5.2 -3.8°
Reaches altitude 10° 17:59:58 10° 92° (E) 2,956 4.8 -4.0°
Maximum altitude 18:06:23 62° 14° (NNE) 1,232 3.5 -5.0°
Drops below altitude 10° 18:12:50 10° 295° (WNW) 2,974 6.9 -6.0°
Sets 18:15:21 0° 293° (WNW) 3,936 7.8 -6.4°
